Regional Weather Roundup
Issued by NWS

Home | Current Version | Previous Version | Text Only | Print | Product List | Glossary On
Versions: 1 2 3 4 5 6 7 8 9 10 11 12 13 14 15 16 17 18 19 20 21 22 23 24 25 26 27 28 29 30 31 32 33 34 35 36 37 38 39 40 41 42 43 44 45 46 47 48 49 50
000
ASUS44 KMEG 031810
RWRTN
TENNESSEE HOURLY STATE WEATHER ROUNDUP
NATIONAL WEATHER SERVICE MEMPHIS TN
100 PM CDT FRI JUL 03 2015

TNZ002-004-019-021-049-052-054-088>092-031900-
WEST TENNESSEE

CITY           SKY/WX    TMP DP  RH WIND       PRES   REMARKS
MEMPHIS INTL   RAIN      74  71  91 W9        29.98S VSB 1
NWS MEMPHIS      N/A     71 N/A N/A MISG        N/A
JACKSON        TSTM      73  69  87 SW14      29.95R
DYERSBURG        N/A    N/A N/A N/A MISG        N/A
PARIS          MOSUNNY   79  70  73 SW7       29.93R
LEXINGTON      CLOUDY    77  70  78 SW22      29.96R
$$

TNZ008-025-027-028-033-062-065-066-031900-
NORTH MIDDLE TENNESSEE

CITY           SKY/WX    TMP DP  RH WIND       PRES   REMARKS
NASHVILLE      PTSUNNY   82  72  71 W9G16     29.92R
CLARKSVILLE    PTSUNNY   79  70  74 SW10G21   29.90S
SMYRNA         PTSUNNY   82  71  69 W15       29.92S
COOKEVILLE       N/A     75  73  94 W6        29.94R
CROSSVILLE     CLOUDY    75  67  76 W14G21    29.97F
$$

TNZ061-075-076-078-094-096-097-031900-
SOUTH MIDDLE TENNESSEE

CITY           SKY/WX    TMP DP  RH WIND       PRES   REMARKS
FAYETTEVILLE   CLOUDY    72  68  88 SW14      29.99R
TULLAHOMA      CLOUDY    73  70  88 SW13      29.99R
WINCHESTER     CLOUDY    73  70  88 SW10      29.99R
MCMINNVILLE    CLOUDY    72  72 100 S3        29.96S
COLUMBIA       PTSUNNY   79  73  83 SW13      29.95R
SHELBYVILLE    CLOUDY    77  73  88 SW10        N/A
$$

TNZ017-018-042-046-047-031900-
NORTHEAST TENNESSEE

CITY           SKY/WX    TMP DP  RH WIND       PRES   REMARKS
TRI CITIES     TSTM      72  69  90 SW13      29.95R
ELIZABETHTON   LGT RAIN  70  66  88 CALM      29.96S
$$

TNZ012-013-036-069-073-074-031900-
CENTRAL EAST TENNESSEE

CITY           SKY/WX    TMP DP  RH WIND       PRES   REMARKS
KNOXVILLE      CLOUDY    78  69  73 SW25G32   29.92F
OAK RIDGE      CLOUDY    77  70  79 VRB5      29.93F
GATLINBURG     PTCLDY    75  70  83 SW10      29.93F
MORRISTOWN     CLOUDY    70  70 100 SW8       29.96S
$$

TNZ083-085-099-031900-
SOUTHEAST TENNESSEE

CITY           SKY/WX    TMP DP  RH WIND       PRES   REMARKS
CHATTANOOGA    LGT RAIN  74  69  85 SW10      29.97S
$$

SKY/WX REPORTED AS FAIR MEANS FEW OR NO CLOUDS BELOW
12 THOUSAND FEET.



USA.gov is the U.S. government's official web portal to all federal, state and local government web resources and services.